TimeCDT,TemperatureF,Dew PointF,Humidity,Sea Level PressureIn,VisibilityMPH,Wind Direction,Wind SpeedMPH,Gust SpeedMPH,PrecipitationIn,Events,Conditions,WindDirDegrees,DateUTC
12:15 AM,49.5,43.7,81,30.02,10.0,SSW,3.5,-,N/A,,Clear,210,2012-10-31 05:15:00
12:35 AM,49.1,43.3,81,30.02,10.0,SW,3.5,-,N/A,,Clear,220,2012-10-31 05:35:00
12:55 AM,49.1,43.7,82,30.02,10.0,SSW,3.5,-,N/A,,Clear,210,2012-10-31 05:55:00
1:15 AM,48.7,43.7,83,30.02,10.0,SW,5.8,-,N/A,,Clear,220,2012-10-31 06:15:00
1:35 AM,51.6,43.0,72,30.02,10.0,SW,4.6,-,N/A,,Clear,220,2012-10-31 06:35:00
1:55 AM,50.9,43.0,74,30.02,10.0,SW,3.5,-,N/A,,Clear,220,2012-10-31 06:55:00
2:15 AM,50.5,43.0,75,30.02,10.0,SW,4.6,-,N/A,,Clear,220,2012-10-31 07:15:00
2:55 AM,50.7,42.8,74,30.02,10.0,SW,4.6,-,N/A,,Clear,220,2012-10-31 07:55:00
3:15 AM,50.5,42.8,75,30.01,10.0,SW,4.6,-,N/A,,Clear,220,2012-10-31 08:15:00
3:35 AM,50.5,42.8,75,30.01,10.0,SW,4.6,-,N/A,,Clear,220,2012-10-31 08:35:00
3:55 AM,50.7,42.8,74,30.01,10.0,SW,4.6,-,N/A,,Clear,220,2012-10-31 08:55:00
4:15 AM,50.2,42.8,76,30.01,10.0,SW,5.8,-,N/A,,Clear,220,2012-10-31 09:15:00
4:35 AM,50.0,42.8,76,30.01,10.0,SSW,5.8,-,N/A,,Clear,210,2012-10-31 09:35:00
4:55 AM,50.0,42.8,76,30.01,10.0,SW,5.8,-,N/A,,Clear,220,2012-10-31 09:55:00
5:15 AM,50.0,42.8,76,30.01,10.0,SW,4.6,-,N/A,,Clear,220,2012-10-31 10:15:00
5:35 AM,50.0,43.0,77,30.01,10.0,SW,4.6,-,N/A,,Clear,220,2012-10-31 10:35:00
5:55 AM,50.0,43.2,77,30.02,10.0,SW,3.5,-,N/A,,Clear,220,2012-10-31 10:55:00
6:15 AM,50.0,43.5,78,30.01,10.0,SW,5.8,-,N/A,,Clear,220,2012-10-31 11:15:00
6:35 AM,50.4,43.9,78,30.02,10.0,SW,4.6,-,N/A,,Clear,230,2012-10-31 11:35:00
7:15 AM,50.4,45.3,83,30.02,10.0,SW,5.8,-,N/A,,Clear,220,2012-10-31 12:15:00
7:35 AM,50.4,45.7,84,30.02,10.0,SSW,5.8,-,N/A,,Clear,210,2012-10-31 12:35:00
8:15 AM,52.2,47.5,84,30.03,10.0,SW,6.9,-,N/A,,Clear,220,2012-10-31 13:15:00
8:35 AM,54.0,49.1,84,30.03,10.0,SW,5.8,-,N/A,,Clear,230,2012-10-31 13:35:00
8:55 AM,55.6,50.2,82,30.03,10.0,SW,6.9,-,N/A,,Clear,220,2012-10-31 13:55:00
9:15 AM,57.0,50.7,79,30.03,10.0,SW,6.9,-,N/A,,Clear,230,2012-10-31 14:15:00
9:35 AM,58.8,51.8,77,30.02,10.0,SW,4.6,-,N/A,,Clear,220,2012-10-31 14:35:00
9:55 AM,61.2,52.9,74,30.03,10.0,WSW,6.9,-,N/A,,Clear,240,2012-10-31 14:55:00
10:15 AM,63.9,54.1,71,30.03,10.0,WSW,6.9,-,N/A,,Clear,240,2012-10-31 15:15:00
10:35 AM,65.1,54.3,68,30.03,10.0,WSW,4.6,-,N/A,,Clear,240,2012-10-31 15:35:00
10:55 AM,67.1,54.7,64,30.04,10.0,West,5.8,-,N/A,,Scattered Clouds,260,2012-10-31 15:55:00
11:15 AM,69.1,54.9,60,30.04,10.0,West,6.9,-,N/A,,Scattered Clouds,260,2012-10-31 16:15:00
11:35 AM,69.8,54.9,59,30.03,10.0,West,6.9,-,N/A,,Scattered Clouds,260,2012-10-31 16:35:00
11:55 AM,71.2,54.7,56,30.02,10.0,WSW,10.4,-,N/A,,Clear,250,2012-10-31 16:55:00
12:15 PM,73.2,55.4,54,30.02,10.0,West,9.2,-,N/A,,Clear,260,2012-10-31 17:15:00
12:35 PM,74.1,55.0,51,30.01,10.0,West,5.8,-,N/A,,Clear,260,2012-10-31 17:35:00
12:55 PM,74.1,55.0,51,30.00,10.0,West,5.8,-,N/A,,Clear,260,2012-10-31 17:55:00
1:15 PM,75.0,55.4,50,29.99,10.0,West,4.6,-,N/A,,Clear,260,2012-10-31 18:15:00
1:35 PM,75.6,55.8,50,29.98,10.0,West,6.9,-,N/A,,Clear,280,2012-10-31 18:35:00
1:55 PM,76.5,55.8,49,29.98,10.0,West,6.9,-,N/A,,Clear,260,2012-10-31 18:55:00
2:15 PM,77.4,55.2,46,29.97,10.0,NW,8.1,-,N/A,,Clear,320,2012-10-31 19:15:00
2:55 PM,75.9,55.0,48,29.97,10.0,NNW,6.9,-,N/A,,Scattered Clouds,330,2012-10-31 19:55:00
3:15 PM,75.9,54.1,47,29.97,10.0,WNW,4.6,-,N/A,,Scattered Clouds,300,2012-10-31 20:15:00
3:35 PM,76.1,55.4,49,29.97,10.0,NW,6.9,-,N/A,,Scattered Clouds,310,2012-10-31 20:35:00
3:55 PM,76.5,56.3,50,29.97,10.0,North,6.9,-,N/A,,Scattered Clouds,350,2012-10-31 20:55:00
4:15 PM,77.0,56.5,49,29.97,10.0,North,8.1,-,N/A,,Scattered Clouds,360,2012-10-31 21:15:00
4:35 PM,76.1,55.0,48,29.97,10.0,NNW,5.8,-,N/A,,Scattered Clouds,330,2012-10-31 21:35:00
4:55 PM,75.7,55.0,49,29.97,10.0,NW,5.8,-,N/A,,Clear,310,2012-10-31 21:55:00
5:15 PM,74.5,56.5,53,29.98,10.0,North,3.5,-,N/A,,Clear,350,2012-10-31 22:15:00
5:35 PM,73.4,56.3,55,29.98,10.0,North,5.8,-,N/A,,Clear,360,2012-10-31 22:35:00
5:55 PM,70.7,56.8,61,29.98,10.0,North,4.6,-,N/A,,Clear,360,2012-10-31 22:55:00
6:15 PM,68.0,57.4,69,29.99,10.0,North,3.5,-,N/A,,Clear,350,2012-10-31 23:15:00
6:35 PM,66.4,57.2,72,30.00,10.0,Calm,Calm,-,N/A,,Clear,0,2012-10-31 23:35:00
6:55 PM,63.5,58.5,84,30.01,10.0,Calm,Calm,-,N/A,,Clear,0,2012-10-31 23:55:00
7:15 PM,61.3,59.4,93,30.01,10.0,Calm,Calm,-,N/A,,Clear,0,2012-11-01 00:15:00
7:35 PM,60.3,59.9,99,30.02,10.0,Calm,Calm,-,N/A,,Clear,0,2012-11-01 00:35:00
8:15 PM,58.1,58.1,100,30.02,10.0,Calm,Calm,-,N/A,,Clear,0,2012-11-01 01:15:00
8:35 PM,57.4,57.4,100,30.02,7.0,Calm,Calm,-,N/A,,Clear,0,2012-11-01 01:35:00
9:15 PM,55.9,55.9,100,30.04,7.0,Calm,Calm,-,N/A,,Clear,0,2012-11-01 02:15:00
9:35 PM,55.4,55.4,100,30.04,10.0,Calm,Calm,-,N/A,,Clear,0,2012-11-01 02:35:00
9:55 PM,54.0,54.0,100,30.04,7.0,Calm,Calm,-,N/A,,Clear,0,2012-11-01 02:55:00
10:15 PM,54.1,54.1,100,30.04,7.0,Calm,Calm,-,N/A,,Clear,0,2012-11-01 03:15:00
10:35 PM,52.7,52.7,100,30.04,7.0,Calm,Calm,-,N/A,,Clear,0,2012-11-01 03:35:00
11:15 PM,51.3,51.3,100,30.04,7.0,Calm,Calm,-,N/A,,Clear,0,2012-11-01 04:15:00
11:35 PM,51.4,51.4,100,30.04,7.0,Calm,Calm,-,N/A,,Clear,0,2012-11-01 04:35:00
11:55 PM,50.7,50.7,100,30.04,7.0,Calm,Calm,-,N/A,,Clear,0,2012-11-01 04:55:00